[[{"header":{"parameterUnit":"m.s-1","parameterCategory":1,"la1":30.2991,"la2":30.254,"lo1":-89.0895,"lo2":-89.0444,"dy":0.0017,"dx":0.0017,"nx":28,"ny":28,"refTime":"2024-06-05T21:00:00:Z","depth":0,"parameterNumber":2,"parameterNumberName":"U-component_of_WINDS"},"data":[0,0,0,0,0,0,0,0,0,0,0,0,0,0,0,0,0,0,0,0,0,0,0,0,0,0,0,0,0,0,0,0,0,0,0,0,0,0,0,0,0,0,0,0,0,0,0,0,0,0,0,0,0,0,0,0,0,0,0.7635,0.7634,0,0.7482,0.7481,0.7479,0.7376,0.7376,0.7375,0.7374,0.7217,0.7214,0.721,0,0,0,0,0,0,0,0,0,0,0,0,0,0.7836,0.7833,0.7635,0.7633,0.7631,0.7483,0.7481,0.7479,0.7377,0.7376,0.7375,0.7374,0.7218,0.7214,0.721,0,0,0,0,0,0,0,0,0,0,0,0,0,0.7723,0.7832,0.7636,0.7563,0.7555,0.7483,0.7481,0.7478,0.7377,0.7376,0.7375,0.7374,0.7219,0.7214,0.7209,0.7198,0,0,0.7193,0.7191,0,0,0,0,0,0,0,0,0.773,0.7716,0.7575,0.7568,0.7558,0.7447,0.7494,0.7384,0.7377,0.7444,0.7374,0.7373,0.7294,0.7283,0.7257,0.719,0.7184,0.7192,0.7189,0.7187,0.7185,0,0,0,0,0,0,0,0.7737,0.7722,0.7575,0.7573,0.7563,0.7537,0.752,0.7472,0.7377,0.7438,0.7431,0.7414,0.729,0.7262,0.7252,0.7181,0.7193,0.7188,0.7185,0.7183,0.7096,0.7097,0,0,0,0,0,0,0.7757,0.7729,0.758,0.757,0.7643,0.7534,0.7515,0.7484,0.7377,0.736,0.7415,0.741,0.7271,0.7258,0.7246,0.7224,0.7187,0.7182,0.7179,0.7095,0.7096,0.7097,0,0,0,0,0,0,0.7762,0.7745,0.7586,0.7647,0.7625,0.7532,0.7498,0.7482,0.7454,0.736,0.7342,0.7404,0.727,0.7254,0.721,0.7217,0.718,0.7175,0.7094,0.7095,0.7097,0.7181,0,0,0,0,0,0,0.7768,0.7747,0.7742,0.7648,0.7622,0.7553,0.7499,0.7479,0.7445,0.7437,0.7345,0.7329,0.7268,0.7219,0.7205,0.7209,0.7171,0.7093,0.7095,0.7096,0.7177,0.7185,0.7192,0,0,0,0,0,0.7776,0.7773,0.7743,0.7725,0.7615,0.7554,0.7539,0.7469,0.7446,0.744,0.7379,0.7332,0.7219,0.7215,0.7199,0.7202,0.7092,0.7094,0.7096,0.7174,0.7184,0.7192,0,0,0,0,0,0,0.787,0.7759,0.7725,0.7691,0.7633,0.7537,0.7527,0.7482,0.7429,0.7423,0.7339,0.7319,0.7284,0.7238,0.7236,0.7184,0.715,0.7149,0.7215,0.7223,0.723,0.7241,0.7166,0,0,0,0,0,0.7887,0.7848,0.7753,0.7732,0.7705,0.7621,0.7592,0.7544,0.7479,0.7454,0.739,0.733,0.728,0.7249,0.7199,0.7171,0.7148,0.7165,0.7172,0.7178,0.7178,0.7158,0.7163,0.7103,0.7103,0.7103,0,0,0.7922,0.7856,0.7837,0.775,0.7698,0.7658,0.7601,0.7562,0.7531,0.7448,0.7402,0.7354,0.728,0.7244,0.7225,0.7205,0.719,0.7181,0.7187,0.7182,0.716,0.7166,0.7171,0.7105,0.7104,0.7104,0,0,0.7964,0.7912,0.7888,0.7838,0.7761,0.7705,0.77,0.761,0.7574,0.7528,0.7464,0.7426,0.7343,0.7293,0.7257,0.7279,0.7232,0.7265,0.7303,0.7284,0.7289,0.7292,0.7299,0.7302,0.7265,0.7265,0.7265,0,0.8017,0.7954,0.7881,0.7845,0.7808,0.7731,0.7705,0.766,0.7572,0.7547,0.7527,0.742,0.7365,0.7315,0.7321,0.7294,0.7284,0.7274,0.7294,0.7297,0.7299,0.7304,0.7307,0.7269,0.7269,0.7269,0.7268,0,0.8022,0.798,0.797,0.7885,0.7847,0.7817,0.7738,0.7708,0.7662,0.7609,0.7561,0.7493,0.7426,0.7411,0.7367,0.7354,0.7344,0.731,0.7274,0.7311,0.7314,0.7315,0.7276,0.7274,0.7273,0.7272,0,0,0.8119,0.7994,0.7991,0.7951,0.7861,0.7826,0.7792,0.7727,0.7702,0.7643,0.7611,0.7543,0.751,0.7469,0.7418,0.7402,0.7422,0.7369,0.7366,0.738,0.7402,0.7427,0.743,0.7391,0.7391,0.7391,0.7407,0,0.8146,0.808,0.8013,0.797,0.7929,0.7856,0.7825,0.7766,0.7715,0.7672,0.7616,0.7568,0.7529,0.7504,0.7485,0.7424,0.7425,0.7422,0.7359,0.7357,0.7378,0.7432,0.7458,0.7477,0.7408,0.7408,0.7408,0,0.8169,0.8113,0.8067,0.7979,0.7959,0.7933,0.7867,0.7828,0.7759,0.7722,0.7676,0.7622,0.7581,0.7551,0.7492,0.7491,0.7461,0.7428,0.7427,0.7417,0.7384,0.7422,0.7481,0.7484,0.741,0.741,0.741,0,0.8242,0.8155,0.8116,0.8084,0.7981,0.7964,0.7921,0.785,0.7815,0.7758,0.7734,0.7673,0.7639,0.7592,0.7522,0.7507,0.747,0.7434,0.7438,0.7439,0.7432,0.7433,0.7486,0.7416,0.7416,0.7416,0.7416,0,0.8278,0.8252,0.8147,0.8123,0.8091,0.8013,0.7984,0.7934,0.7872,0.7835,0.7769,0.7736,0.7647,0.7603,0.7549,0.7507,0.7493,0.7461,0.7447,0.7466,0.747,0.7444,0.7441,0.7417,0.7417,0.7417,0.7417,0,0.8354,0.8282,0.8234,0.8141,0.8116,0.8097,0.8016,0.7989,0.7935,0.7889,0.7874,0.7788,0.7733,0.7659,0.7582,0.7545,0.751,0.7488,0.7533,0.7524,0.7531,0.7531,0.7568,0.7568,0.7501,0.7502,0.7502,0,0.8381,0.8359,0.8263,0.8234,0.8192,0.8146,0.811,0.8033,0.7997,0.7917,0.7899,0.7839,0.7787,0.7702,0.7632,0.7572,0.7547,0.7564,0.7538,0.7557,0.7545,0.7547,0.7543,0.757,0.7572,0.7573,0.7573,0,0.8435,0.8401,0.8351,0.8289,0.8247,0.8194,0.8138,0.8119,0.8029,0.7993,0.7936,0.7896,0.7816,0.7756,0.7687,0.7641,0.7592,0.7583,0.758,0.7598,0.7625,0.7609,0.7549,0.7582,0.7581,0.758,0.758,0.7579,0.8485,0.8462,0.839,0.8337,0.8287,0.8236,0.8205,0.8147,0.8098,0.8027,0.7985,0.7929,0.7859,0.7761,0.7717,0.7671,0.7652,0.7649,0.7647,0.7647,0.7653,0.7634,0.7659,0.7658,0.7658,0.7658,0.7658,0,0.8535,0.8485,0.8437,0.836,0.8318,0.8277,0.8212,0.8179,0.8131,0.8071,0.802,0.7954,0.7896,0.7822,0.7758,0.7736,0.7712,0.7722,0.7722,0.7712,0.7675,0.7683,0.7743,0.7743,0.7743,0.7743,0.7743,0.7743,0.8555,0.8513,0.847,0.8402,0.8352,0.8297,0.8264,0.8216,0.8167,0.8096,0.8048,0.7999,0.7932,0.7864,0.7808,0.7788,0.7767,0.7783,0.7756,0.7722,0.7715,0.7707,0.7714,0.778,0.778,0.7796,0.7796,0.7796]},{"header":{"parameterUnit":"m.s-1","parameterCategory":1,"la1":30.2991,"la2":30.254,"lo1":-89.0895,"lo2":-89.0444,"dy":0.0017,"dx":0.0017,"nx":28,"ny":28,"refTime":"2024-06-05T21:00:00:Z","depth":0,"parameterNumber":3,"parameterNumberName":"V-component_of_WINDS"},"data":[0,0,0,0,0,0,0,0,0,0,0,0,0,0,0,0,0,0,0,0,0,0,0,0,0,0,0,0,0,0,0,0,0,0,0,0,0,0,0,0,0,0,0,0,0,0,0,0,0,0,0,0,0,0,0,0,0,0,6.2135,6.2136,0,6.2239,6.224,6.2241,6.2203,6.2201,6.2199,6.2197,6.2298,6.2303,6.2308,0,0,0,0,0,0,0,0,0,0,0,0,0,6.1899,6.1904,6.2135,6.2136,6.2138,6.2239,6.224,6.2242,6.2204,6.2201,6.2198,6.2196,6.2297,6.2303,6.2308,0,0,0,0,0,0,0,0,0,0,0,0,0,6.2002,6.1905,6.2135,6.2131,6.2132,6.2238,6.224,6.2242,6.2204,6.2201,6.2197,6.2194,6.2295,6.2302,6.2309,6.2424,0,0,6.2332,6.2335,0,0,0,0,0,0,0,0,6.1996,6.2011,6.213,6.2132,6.2133,6.2205,6.2194,6.2303,6.2205,6.2177,6.2197,6.2192,6.227,6.2279,6.2306,6.2429,6.2433,6.2332,6.2337,6.234,6.2342,0,0,0,0,0,0,0,6.1989,6.2006,6.2176,6.2132,6.2133,6.2123,6.2133,6.2215,6.2241,6.2179,6.2176,6.219,6.227,6.2299,6.2308,6.2435,6.2332,6.2339,6.2343,6.2346,6.2656,6.266,0,0,0,0,0,0,6.1982,6.2,6.2173,6.2179,6.2055,6.213,6.2142,6.2185,6.224,6.2246,6.2192,6.2187,6.2288,6.23,6.2311,6.2449,6.234,6.2347,6.2351,6.2652,6.2657,6.2661,0,0,0,0,0,0,6.1977,6.1998,6.2168,6.2089,6.211,6.2138,6.2186,6.2189,6.2218,6.2251,6.2255,6.2218,6.2286,6.2301,6.2397,6.2452,6.235,6.2357,6.2648,6.2654,6.2659,6.2725,0,0,0,0,0,0,6.1971,6.1996,6.2042,6.2091,6.2114,6.2254,6.219,6.2193,6.2232,6.2226,6.2276,6.228,6.2284,6.2386,6.2404,6.246,6.2362,6.2643,6.265,6.2657,6.2718,6.2733,6.2745,0,0,0,0,0,6.1962,6.2055,6.2044,6.2065,6.2172,6.2257,6.227,6.2274,6.2236,6.2281,6.2302,6.2279,6.2443,6.2396,6.2416,6.2475,6.2639,6.2648,6.2657,6.2712,6.273,6.2744,0,0,0,0,0,0,6.2011,6.2062,6.205,6.2162,6.2206,6.225,6.2307,6.2293,6.2347,6.2339,6.234,6.2352,6.245,6.2472,6.2419,6.2589,6.2535,6.2548,6.2571,6.2588,6.2601,6.2593,6.2368,0,0,0,0,0,6.2035,6.2101,6.2142,6.2236,6.2259,6.228,6.2317,6.2316,6.2361,6.2378,6.2406,6.2449,6.251,6.255,6.2608,6.2721,6.2731,6.2772,6.2785,6.2796,6.2807,6.2867,6.2885,6.2689,6.2689,6.2689,0,0,6.2085,6.2121,6.2162,6.2247,6.2281,6.2348,6.2295,6.2368,6.2418,6.2389,6.2481,6.2503,6.255,6.2655,6.2702,6.2676,6.2863,6.2807,6.2815,6.282,6.2878,6.2896,6.2913,6.2695,6.2694,6.2693,0,0,6.221,6.2244,6.2327,6.2362,6.2414,6.2427,6.2446,6.2494,6.2507,6.26,6.258,6.2637,6.2743,6.2777,6.2809,6.2946,6.2927,6.2965,6.3034,6.3093,6.3108,6.3122,6.317,6.3187,6.2976,6.2976,6.2976,0,6.2264,6.2366,6.237,6.2446,6.2483,6.2461,6.2543,6.2577,6.2645,6.267,6.264,6.2772,6.2803,6.2914,6.2948,6.2975,6.2996,6.2959,6.3106,6.312,6.3133,6.3178,6.3196,6.298,6.298,6.298,6.2979,0,6.243,6.2501,6.2561,6.2629,6.2672,6.2751,6.2765,6.2809,6.2804,6.282,6.2913,6.2949,6.3014,6.304,6.3036,6.3151,6.3134,6.3105,6.3051,6.3155,6.3198,6.3216,6.2987,6.2985,6.2984,6.2983,0,0,6.2588,6.2657,6.2679,6.2709,6.2765,6.2819,6.2895,6.296,6.2997,6.3044,6.3107,6.3197,6.3171,6.3207,6.3206,6.3258,6.3363,6.3223,6.3224,6.3246,6.349,6.351,6.3531,6.335,6.3354,6.3356,6.3486,0,6.2717,6.2853,6.2859,6.2982,6.3046,6.3027,6.3093,6.3134,6.315,6.3206,6.3223,6.3286,6.3248,6.3269,6.3319,6.3339,6.3411,6.333,6.3407,6.341,6.3395,6.3553,6.3575,6.3695,6.3502,6.3505,6.3507,0,6.2885,6.2939,6.3069,6.3115,6.3142,6.3202,6.3261,6.3315,6.336,6.3368,6.3408,6.34,6.3476,6.3421,6.3525,6.347,6.3501,6.3516,6.3521,6.3527,6.3464,6.3563,6.3734,6.3752,6.3534,6.3532,6.353,0,6.2985,6.309,6.3182,6.3208,6.3264,6.3306,6.3331,6.3373,6.3411,6.3462,6.3487,6.3546,6.3578,6.3623,6.363,6.3589,6.3734,6.3679,6.3742,6.3742,6.3772,6.377,6.395,6.3795,6.3795,6.3794,6.3794,0,6.3127,6.3208,6.3228,6.3284,6.3372,6.3377,6.3464,6.3486,6.3523,6.3581,6.3568,6.3622,6.3629,6.3686,6.3692,6.3776,6.3791,6.3798,6.3799,6.3799,6.3798,6.3819,6.3811,6.3799,6.3798,6.3797,6.3796,0,6.3255,6.3272,6.3369,6.3415,6.3428,6.3491,6.3529,6.3582,6.3597,6.3671,6.3688,6.3712,6.3777,6.3789,6.3866,6.387,6.3971,6.3963,6.3956,6.3955,6.4016,6.401,6.4215,6.4241,6.407,6.4071,6.4073,0,6.3344,6.3405,6.3457,6.3496,6.3524,6.3587,6.3626,6.3632,6.3673,6.3729,6.3775,6.3839,6.3891,6.3996,6.4018,6.4077,6.407,6.4138,6.4078,6.4076,6.4069,6.4065,6.4071,6.4149,6.415,6.4152,6.4153,0,6.35,6.3505,6.3563,6.3624,6.3671,6.3719,6.3764,6.3796,6.3808,6.3855,6.3922,6.3963,6.4042,6.4105,6.4163,6.4187,6.4172,6.4172,6.4189,6.419,6.4183,6.4186,6.3986,6.4167,6.4166,6.4165,6.4164,6.4163,6.361,6.3663,6.3708,6.3772,6.3807,6.385,6.3901,6.3923,6.398,6.4046,6.4046,6.412,6.4162,6.4238,6.4266,6.4323,6.4301,6.4326,6.4332,6.4338,6.4343,6.4175,6.4333,6.4333,6.4332,6.4332,6.4332,0,6.3764,6.3792,6.3851,6.3916,6.3966,6.3949,6.3998,6.4041,6.4106,6.4147,6.4199,6.4276,6.4337,6.4365,6.4425,6.4464,6.4459,6.448,6.4476,6.4482,6.436,6.4339,6.4483,6.4483,6.4483,6.4483,6.4483,6.4483,6.385,6.3939,6.3949,6.4055,6.4082,6.4155,6.4184,6.4223,6.4255,6.4342,6.4394,6.4412,6.4447,6.451,6.4565,6.4571,6.4593,6.4617,6.462,6.4506,6.4491,6.4476,6.4456,6.4622,6.4623,6.4737,6.4738,6.4739]}]]